Weather in Kolhapur

India     16°41′49″N   74°13′53″E
temp.,
°C
wind,
m/s
gust,
m/s
humid.,
%
clouds,
%
prec.,
mm/h
press.,
hPa
HPBL,
m
12 may, wed
wed1223:30+26wsw3562100 0.0 1009310
02:30+25sw3470100 0.0 1008352
05:30+24wsw2477100 0.0 1008235
08:30+27w235984 0.0 1009441
11:30+34wsw2136100 0.0 10071507
14:30+36wsw4232100 0.0 10043104
17:30+31w7650100 0.1 10031006
20:30+27wsw5866100 0.0 1005452
13 may, thu
thu1323:30+25wsw477897 0.0 1007470
02:30+24wsw488194 0.0 1005442
05:30+23wsw2584100 0.0 1006343
08:30+26wnw346695 0.0 1008604
11:30+32wnw223992 0.0 10061350
14:30+36nnw2230100 0.0 10032813
17:30+32wsw5542100 0.1 1002651
20:30+28wsw6760100 0.0 1004507
14 may, fri
fri1423:30+27wsw2367100 0.0 1006296
02:30+26w126794 0.1 1003171
05:30+24w1278100 2.3 1004101
08:30+27ssw116176 2.1 1006340
11:30+33e244256 2.1 10031648
14:30+35se6635100 0.1 10002018
17:30+34se3537100 1.4 10001187
20:30+28wnw4566100 0.1 1002223
15 may, sat
sat1523:30+28n1260100 0.1 1002142
02:30+28ese116161 0.0 100029
05:30+27ene2264100 0.1 100152
08:30+29ene5953100 0.0 1002707
11:30+32ese71142100 0.0 10011696
14:30+32ese71242100 0.0 9992031
17:30+30se101250100 0.1 998928
20:30+26ese61169100 3.1 10011116
16 may, sun
sun1623:30+25e81570100 3.4 10011182
02:30+25e111869100 0.0 9971254
05:30+25e112070100 0.0 9971285
08:30+23e132286100 5.9 9981218
11:30+23ese132085100 9.9 9981125
14:30+24se131988100 4.3 9971138
17:30+24sse81387100 8.1 9981108
20:30+23sse71286100 0.5 1001879